Epoch 2004 Apr. 25.0 TT = JDT 2453120.5 T 2004 May 10.95716 TT MPC q 2.6171311 (2000.0) P Q n 0.10316353 Peri. 104.55775 -0.54231155 +0.82615556 a 4.5024814 Node 131.55346 -0.82784435 -0.49437451 e 0.4187358 Incl. 11.78629 -0.14342911 -0.27029766 P 9.55 From 67 observations 2004 Apr. 19-2013 Feb. 6, mean residual 0".6.
m1 = 13.2 + 5 logΔ + 10.0 log r [ , 0] ( 〜2004年 5月10日) m1 = -191.6 + 5 logΔ + 500 log r [ 0,50] (2004年 5月10日〜2004年 6月29日) m1 = 15.0 + 5 logΔ + 10.0 log r [50, ] (2004年 6月29日〜 ) ※ 灰色の曲線は、m1 = 13.2 + 5 logΔ + 10.0 log r の光度曲線です。